timestamp,surface_pressure_avg,surface_temp_avg,battery_voltage,lat,long
2019-09-08 00:00:00+00:00,228.4081,17.7,12.97,47.84626,-54.09684
2019-09-08 00:10:00+00:00,233.8398,17.68,12.89,47.84626,-54.09684
2019-09-08 00:20:00+00:00,238.8264,17.68,12.97,47.84626,-54.09684
2019-09-08 00:30:00+00:00,225.9081,17.66,12.97,47.84626,-54.09684
2019-09-08 00:40:00+00:00,228.0114,17.6,12.97,47.84626,-54.09684
2019-09-08 00:50:00+00:00,236.4464,17.6,12.97,47.84626,-54.09684
2019-09-08 01:00:00+00:00,234.8764,17.4,12.89,47.84626,-54.09684
2019-09-08 01:10:00+00:00,232.098,17.3,12.81,47.84626,-54.09684
2019-09-08 01:20:00+00:00,234.7464,17.2,12.97,47.84626,-54.09684
2019-09-08 01:30:00+00:00,240.683,17.04,12.97,47.84626,-54.09684
2019-09-08 01:40:00+00:00,243.188,16.9,12.97,47.84626,-54.09684
2019-09-08 01:50:00+00:00,236.5497,16.92,12.97,47.84626,-54.09684
2019-09-08 02:00:00+00:00,241.1231,17.29,12.89,47.84626,-54.09684
2019-09-08 02:10:00+00:00,250.5864,17.34,12.81,47.84626,-54.09684
2019-09-08 02:20:00+00:00,243.7898,17.49,12.89,47.84626,-54.09684
2019-09-08 02:30:00+00:00,235.6414,17.5,12.97,47.84626,-54.09684
2019-09-08 02:40:00+00:00,244.3931,17.56,12.97,47.84626,-54.09684
2019-09-08 02:50:00+00:00,253.3364,17.57,12.97,47.84626,-54.09684
2019-09-08 03:00:00+00:00,248.333,17.59,12.89,47.84626,-54.09684
2019-09-08 03:10:00+00:00,241.7831,17.3,12.81,47.84626,-54.09684
2019-09-08 03:20:00+00:00,245.2331,17.04,12.89,47.84626,-54.09684
2019-09-08 03:30:00+00:00,248.0364,17.5,12.89,47.84626,-54.09684
2019-09-08 03:40:00+00:00,250.9497,17.4,12.97,47.84626,-54.09684
2019-09-08 03:50:00+00:00,252.0864,17.5,12.97,47.84626,-54.09684
2019-09-08 04:00:00+00:00,263.3997,17.5,12.89,47.84626,-54.09684
2019-09-08 04:10:00+00:00,280.3765,16.8,12.81,47.84626,-54.09684
2019-09-08 04:20:00+00:00,287.4081,17.2,12.89,47.84626,-54.09684
2019-09-08 04:30:00+00:00,276.218,17.2,12.89,47.84626,-54.09684
2019-09-08 04:40:00+00:00,273.8481,17.0,12.97,47.84626,-54.09684
2019-09-08 04:50:00+00:00,283.668,17.4,12.97,47.84626,-54.09684
2019-09-08 05:00:00+00:00,284.9214,17.4,12.89,47.84626,-54.09684
2019-09-08 05:10:00+00:00,276.9614,17.4,12.81,47.84626,-54.09684
2019-09-08 05:20:00+00:00,281.9513,17.39,12.89,47.84626,-54.09684
2019-09-08 05:30:00+00:00,294.023,17.4,12.89,47.84626,-54.09684
2019-09-08 05:40:00+00:00,294.5363,17.39,12.97,47.84626,-54.09684
2019-09-08 05:50:00+00:00,289.963,17.4,12.97,47.84626,-54.09684
2019-09-08 06:00:00+00:00,303.1981,17.39,12.89,47.84626,-54.09684
2019-09-08 06:10:00+00:00,309.8814,17.39,12.81,47.84626,-54.09684
2019-09-08 06:20:00+00:00,301.0297,17.4,12.89,47.84626,-54.09684
2019-09-08 06:30:00+00:00,301.4397,17.5,12.89,47.84626,-54.09684
2019-09-08 06:40:00+00:00,309.088,17.5,12.89,47.84626,-54.09684
2019-09-08 06:50:00+00:00,307.4446,17.47,12.89,47.84626,-54.09684
2019-09-08 07:00:00+00:00,303.4263,17.46,12.81,47.84626,-54.09684
2019-09-08 07:10:00+00:00,307.2747,17.4,12.81,47.84626,-54.09684
2019-09-08 07:20:00+00:00,313.0547,17.39,12.89,47.84626,-54.09684
2019-09-08 07:30:00+00:00,314.7513,17.3,12.89,47.84626,-54.09684
2019-09-08 07:40:00+00:00,323.2513,17.3,12.89,47.84626,-54.09684
2019-09-08 07:50:00+00:00,327.1412,17.3,12.89,47.84626,-54.09684
2019-09-08 08:00:00+00:00,327.6547,17.3,12.81,47.84626,-54.09684
2019-09-08 08:10:00+00:00,323.778,17.3,12.81,47.84626,-54.09684
2019-09-08 08:20:00+00:00,317.1863,17.3,12.89,47.84626,-54.09684
2019-09-08 08:30:00+00:00,316.153,17.3,12.89,47.84626,-54.09684
2019-09-08 08:40:00+00:00,312.3831,17.2,12.89,47.84626,-54.09684
2019-09-08 08:50:00+00:00,307.8013,17.2,12.89,47.84626,-54.09684
2019-09-08 09:00:00+00:00,306.323,17.2,12.81,47.84626,-54.09684
2019-09-08 09:10:00+00:00,303.6396,17.2,12.73,47.84626,-54.09684
2019-09-08 09:20:00+00:00,296.3264,17.1,12.81,47.84626,-54.09684
2019-09-08 09:30:00+00:00,288.0013,17.0,12.89,47.84626,-54.09684
2019-09-08 09:40:00+00:00,282.9396,16.9,12.89,47.84626,-54.09684
2019-09-08 09:50:00+00:00,277.2764,16.8,12.89,47.84626,-54.09684
2019-09-08 10:00:00+00:00,266.7798,16.8,12.81,47.84626,-54.09684
2019-09-08 10:10:00+00:00,257.1364,16.8,12.81,47.84626,-54.09684
2019-09-08 10:20:00+00:00,258.3764,16.8,12.81,47.84626,-54.09684
2019-09-08 10:30:00+00:00,255.7897,16.78,12.89,47.84626,-54.09684
2019-09-08 10:40:00+00:00,243.0547,16.7,12.89,47.84626,-54.09684
2019-09-08 10:50:00+00:00,236.0831,16.69,12.89,47.84626,-54.09684
2019-09-08 11:00:00+00:00,233.5481,16.68,12.89,47.84626,-54.09684
2019-09-08 11:10:00+00:00,223.9414,16.62,12.81,47.84626,-54.09684
2019-09-08 11:20:00+00:00,216.6082,16.65,12.89,47.84626,-54.09684
2019-09-08 11:30:00+00:00,217.9498,16.7,12.89,47.84626,-54.09684
2019-09-08 11:40:00+00:00,216.8198,16.79,12.97,47.84626,-54.09684
2019-09-08 11:50:00+00:00,212.2498,16.8,13.05,47.84626,-54.09684
2019-09-08 12:00:00+00:00,212.6298,16.8,13.05,47.84626,-54.09684
2019-09-08 12:10:00+00:00,216.7847,16.82,12.97,47.84626,-54.09684
2019-09-08 12:20:00+00:00,220.4731,16.86,13.05,47.84626,-54.09684
2019-09-08 12:30:00+00:00,222.7581,16.83,13.13,47.84626,-54.09684
2019-09-08 12:40:00+00:00,225.5914,16.8,13.53,47.84626,-54.09684
2019-09-08 12:50:00+00:00,226.4048,16.8,13.6,47.84626,-54.09684
2019-09-08 13:00:00+00:00,223.5231,16.8,13.6,47.84626,-54.09684
2019-09-08 13:10:00+00:00,225.4914,16.8,13.44,47.84626,-54.09684
2019-09-08 13:20:00+00:00,227.7747,16.8,13.53,47.84626,-54.09684
2019-09-08 13:30:00+00:00,222.6698,16.79,13.53,47.84626,-54.09684
2019-09-08 13:40:00+00:00,225.0998,16.78,13.68,47.84626,-54.09684
2019-09-08 13:50:00+00:00,235.7964,16.78,13.68,47.84626,-54.09684
2019-09-08 14:00:00+00:00,234.0314,16.77,14.0,47.84626,-54.09684
2019-09-08 14:10:00+00:00,229.5264,16.75,13.68,47.84626,-54.09684
2019-09-08 14:20:00+00:00,236.0265,16.75,13.84,47.84626,-54.09684
2019-09-08 14:30:00+00:00,244.9064,16.73,13.84,47.84626,-54.09684
2019-09-08 14:40:00+00:00,245.9948,16.7,13.84,47.84626,-54.09684
2019-09-08 14:50:00+00:00,244.638,16.7,13.84,47.84626,-54.09684
2019-09-08 15:00:00+00:00,247.2414,16.7,13.92,47.84626,-54.09684
2019-09-08 15:10:00+00:00,253.1814,16.7,14.0,47.84626,-54.09684
2019-09-08 15:20:00+00:00,254.3398,16.7,14.0,47.84626,-54.09684
2019-09-08 15:30:00+00:00,256.4881,16.7,14.56,47.84626,-54.09684
2019-09-08 15:40:00+00:00,262.3931,16.7,14.32,47.84626,-54.09684
2019-09-08 15:50:00+00:00,268.2847,16.7,14.4,47.84626,-54.09684
2019-09-08 16:00:00+00:00,272.2681,16.7,14.32,47.84626,-54.09684
2019-09-08 16:10:00+00:00,278.9581,16.7,14.24,47.84626,-54.09684
2019-09-08 16:20:00+00:00,285.9097,16.7,14.48,47.84626,-54.09684
2019-09-08 16:30:00+00:00,291.3497,16.7,14.4,47.84626,-54.09684
2019-09-08 16:40:00+00:00,296.2414,16.7,14.64,47.84626,-54.09684
2019-09-08 16:50:00+00:00,302.0613,16.7,14.48,47.84626,-54.09684
2019-09-08 17:00:00+00:00,306.6813,16.7,14.56,47.84626,-54.09684
2019-09-08 17:10:00+00:00,312.0146,16.7,14.32,47.84626,-54.09684
2019-09-08 17:20:00+00:00,313.8197,16.7,14.48,47.84626,-54.09684
2019-09-08 17:30:00+00:00,314.4147,16.7,14.4,47.84626,-54.09684
2019-09-08 17:40:00+00:00,315.3497,16.7,14.32,47.84626,-54.09684
2019-09-08 17:50:00+00:00,322.1197,16.7,14.24,47.84626,-54.09684
2019-09-08 18:00:00+00:00,324.1313,16.7,14.32,47.84626,-54.09684
2019-09-08 18:10:00+00:00,321.6963,16.7,14.08,47.84626,-54.09684
2019-09-08 18:20:00+00:00,325.5295,16.7,14.16,47.84626,-54.09684
2019-09-08 18:30:00+00:00,329.9329,16.7,14.16,47.84626,-54.09684
2019-09-08 18:40:00+00:00,330.5297,16.7,14.16,47.84626,-54.09684
2019-09-08 18:50:00+00:00,330.4613,16.7,14.16,47.84626,-54.09684
2019-09-08 19:00:00+00:00,337.4147,16.7,14.08,47.84626,-54.09684
2019-09-08 19:10:00+00:00,340.5679,16.7,14.0,47.84626,-54.09684
2019-09-08 19:20:00+00:00,340.3864,16.7,14.0,47.84626,-54.09684
2019-09-08 19:30:00+00:00,341.5479,16.7,14.08,47.84626,-54.09684
2019-09-08 19:40:00+00:00,346.4929,16.7,14.0,47.84626,-54.09684
2019-09-08 19:50:00+00:00,349.708,16.69,14.0,47.84626,-54.09684
2019-09-08 20:00:00+00:00,347.2164,16.69,13.92,47.84626,-54.09684
2019-09-08 20:10:00+00:00,344.3279,16.7,13.84,47.84626,-54.09684
2019-09-08 20:20:00+00:00,345.7796,16.69,13.92,47.84626,-54.09684
2019-09-08 20:30:00+00:00,346.6447,16.67,13.92,47.84626,-54.09684
2019-09-08 20:40:00+00:00,342.7429,16.64,13.84,47.84626,-54.09684
2019-09-08 20:50:00+00:00,342.5713,16.64,13.84,47.84626,-54.09684
2019-09-08 21:00:00+00:00,340.7596,16.61,13.68,47.84626,-54.09684
2019-09-08 21:10:00+00:00,333.0164,16.6,13.53,47.84626,-54.09684
2019-09-08 21:20:00+00:00,330.2713,16.6,13.53,47.84626,-54.09684
2019-09-08 21:30:00+00:00,331.713,16.6,13.44,47.84626,-54.09684
2019-09-08 21:40:00+00:00,321.0047,16.6,13.44,47.84626,-54.09684
2019-09-08 21:50:00+00:00,310.0529,16.6,13.37,47.84626,-54.09684
2019-09-08 22:00:00+00:00,312.0447,16.61,13.29,47.84626,-54.09684
2019-09-08 22:10:00+00:00,308.573,16.6,13.13,47.84626,-54.09684
2019-09-08 22:20:00+00:00,295.6647,16.6,13.13,47.84626,-54.09684
2019-09-08 22:30:00+00:00,291.5013,16.6,13.13,47.84626,-54.09684
2019-09-08 22:40:00+00:00,291.6331,16.6,13.13,47.84626,-54.09684
2019-09-08 22:50:00+00:00,284.9897,16.6,13.05,47.84626,-54.09684
2019-09-08 23:00:00+00:00,277.483,16.6,12.97,47.84626,-54.09684
2019-09-08 23:10:00+00:00,275.5347,16.6,12.89,47.84626,-54.09684
2019-09-08 23:20:00+00:00,268.3847,16.6,12.97,47.84626,-54.09684
2019-09-08 23:30:00+00:00,259.6147,16.6,12.97,47.84626,-54.09684
2019-09-08 23:40:00+00:00,256.433,16.6,12.97,47.84626,-54.09684
2019-09-08 23:50:00+00:00,255.5148,16.6,12.97,47.84626,-54.09684
